Flag for U.S.A. Weather past 2 weeks in Scottsdale, Arizona, U.S.A.

Now
83 °F

Sunny.


Feels Like: 83 °F
Forecast: 71 / 91 °F
Wind: 3 mph from South

Location: Scottsdale Airport

Current Time: Aug 23, 2014 at 9:22:53 AM

Latest Report: Aug 23, 2014 at 8:53 AM


Visibility: 10 mi

Pressure: 29.89 "Hg

Humidity: 44%

Dew point: 59 °F

Location of ScottsdaleLocation

Historic Weather in Scottsdale — Graph

°F

Scottsdale temperature yesterday

Maximum temperature yesterday: 90 °F (at 3:53 PM)
Minimum temperature yesterday: 70 °F (at 2:53 AM)
Average temperature yesterday: 80 °F

Past Weeks' High & Low Weather Summary

 TemperatureHumidityPressure
High107 °F (Aug 17, 4:53 PM)94% (Aug 19, 1:03 PM)29.99 "Hg (Aug 19, 1:03 PM)
Low70 °F (Aug 19, 12:53 PM)15% (Aug 8, 9:53 AM)29.68 "Hg (Aug 17, 4:53 PM)
Average88 °F45%29.84 "Hg
* Reported Aug 8 7:53 AM — Aug 23 7:53 AM, Scottsdale, Weather by CustomWeather, © 2014

Note: Actual official high and low records may vary slightly from our data, if they occured in-between our weather recording intervals... More about our weather records

Advertising

Scottsdale weather history for previous 24 hours

 ConditionsComfort  
Time TempWeatherWind HumidityBarometerVisibility
7:53 AM
Aug 23
80 °FSunny.No wind54%29.89 "Hg10 mi
6:53 AM75 °FSunny.No wind66%29.88 "Hg10 mi
5:53 AM74 °FClear.No wind74%29.87 "Hg10 mi
4:53 AM76 °FClear.No wind67%29.86 "Hg10 mi
3:53 AM76 °FClear.No wind67%29.85 "Hg10 mi
2:53 AM76 °FClear.No wind67%29.85 "Hg10 mi
1:53 AM78 °FClear.No wind62%29.85 "Hg10 mi
12:53 AM78 °FClear.No wind60%29.85 "Hg10 mi
11:53 PM
Aug 22
80 °FClear.No wind56%29.85 "Hg10 mi
10:53 PM80 °FClear.No wind52%29.85 "Hg10 mi
9:53 PM84 °FClear.No wind43%29.84 "Hg10 mi
8:53 PM85 °FClear.No wind40%29.84 "Hg10 mi
7:53 PM86 °FClear.5 mph36%29.84 "Hg10 mi
6:53 PM88 °FSunny.6 mph34%29.83 "Hg10 mi
5:53 PM89 °FSunny.9 mph32%29.83 "Hg10 mi
4:53 PM90 °FSunny.6 mph33%29.84 "Hg10 mi
3:53 PM90 °FScattered clouds.7 mph33%29.84 "Hg10 mi
2:53 PM88 °FSunny.3 mph36%29.86 "Hg10 mi
1:53 PM88 °FPassing clouds.3 mph38%29.88 "Hg10 mi
12:53 PM87 °FScattered clouds.5 mph43%29.90 "Hg10 mi
11:53 AM84 °FScattered clouds.5 mph48%29.93 "Hg10 mi
10:53 AM83 °FSunny.No wind55%29.94 "Hg10 mi
9:53 AM79 °FSunny.3 mph60%29.96 "Hg10 mi
Weather by CustomWeather, © 2014

See weather overviewHow to use our weather pages